Regional Weather Roundup
Issued by NWS State College, PA

Home | Current Version | Previous Version | Graphics & Text | Print | Product List | Glossary Off
Versions: 1 2 3 4 5 6 7 8 9 10 11 12 13 14 15 16 17 18 19 20 21 22 23 24 25 26 27 28 29 30 31 32 33 34 35 36 37 38 39 40 41 42 43 44 45 46 47 48 49 50

000
ASUS41 KCTP 091810
RWRCTP

REGIONAL WEATHER ROUNDUP
NATIONAL WEATHER SERVICE STATE COLLEGE PA
200 PM EDT WED JUL 09 2014

Note: "fair" indicates few or no clouds below 12,000 feet with no
significant weather and/or obstructions to visibility.

* = STATION THAT DOES NOT REPORT PRECIPITATION /E.G. RAIN...SNOW...ETC/
    THUNDER OR FOG.

PAZ002>004-007>009-013>016-020>023-029>032-091900-
WESTERN PENNSYLVANIA

CITY           SKY/WX    TMP DP  RH WIND       PRES   REMARKS
ERIE           MOSUNNY   72  61  68 NW10      29.92R
MEADVILLE      CLOUDY    70  61  73 W7        29.92R
FRANKLIN*      PTSUNNY   77  57  50 W16       29.93S
NEW CASTLE     NOT AVBL
BEAVER COUNTY  MOSUNNY   79  61  53 SW9       29.93S
BUTLER*        MOSUNNY   79  61  53 SW13      29.94S
PITTSBURGH INT PTSUNNY   80  58  46 SW13      29.92F
PITTSBURGH     MOSUNNY   82  57  42 SW14G21   29.91F
INDIANA*       MOSUNNY   79  59  50 W14G22    29.95F
LATROBE        PTSUNNY   79  61  53 W12G23    29.94F
WASHINGTON CO* MOSUNNY   81  61  50 SW9       29.94F
$$

PAZ004>006-010>012-017>019-024>028-033>037-041-042-045-046-049>053-091900-
CENTRAL PENNSYLVANIA

CITY           SKY/WX    TMP DP  RH WIND       PRES   REMARKS
BRADFORD       CLOUDY    67  57  70 W14       29.93R
DUBOIS         MOSUNNY   73  63  70 W12G17    29.92F
CLEARFIELD     SUNNY     79  58  48 SW14G23   29.91R
JOHNSTOWN      SUNNY     76  56  49 W15G22    29.96F
ALTOONA        MOSUNNY   79  58  48 SW15      29.93F
STATE COLLEGE  PTSUNNY   81  61  50 W16G22    29.89F
WILLIAMSPORT   SUNNY     85  59  41 SW12G21   29.84F
SELINSGROVE    PTSUNNY   83  67  58 SW9       29.87S
FT INDIANTOWN  MOSUNNY   86  66  51 S14G20    29.88F
CAPITAL CITY   MOSUNNY   85  62  46 SW14G22   29.87F
HARRISBURG     MOSUNNY   87  62  43 SW13G28   29.87F
YORK           PTSUNNY   83  62  49 SW12      29.89F
$$

PAZ038>040-043-044-047-048-054-055-060>062-067>071-091900-
EASTERN PENNSYLVANIA

CITY           SKY/WX    TMP DP  RH WIND       PRES   REMARKS
SCRANTON       PTSUNNY   82  60  47 SW13G20   29.87F
MOUNT POCONO   CLOUDY    75  61  61 SW9G20    29.94F
ALLENTOWN      PTSUNNY   84  62  47 SW12      29.88F
QUAKERTOWN*    PTCLDY    84  66  54 S10G16    29.91F
READING        MOSUNNY   84  66  54 S7        29.87F
LANCASTER      MOSUNNY   86  63  45 SW14G24   29.88F
COATESVILLE    MOCLDY    82  66  57 SW7       29.93F
POTTSTOWN      MOSUNNY   85  65  51 SW9G18    29.91F
BLUE BELL      MOSUNNY   88  66  48 SW6       29.89F
DOYLESTOWN     MOSUNNY   83  65  54 S5        29.89F
WILLOW GROVE   NOT AVBL
NORTH PHILA    PTSUNNY   88  64  44 S12G18    29.90F
PHILADELPHIA   PTSUNNY   86  65  49 SW14      29.90F
$$


USA.gov is the U.S. government's official web portal to all federal, state and local government web resources and services.